Location: Bagnara
(41.0500°N, 14.7833°E)
Time: 07:54:40
(UTC+00:00)

USA 281 - Pass Details

Date: 20 June 2021
Orbit: 1078 x 1081 km, 106.0° (Epoch: 18 July)

Event Time Altitude Azimuth Distance (km) Brightness Sun altitude
Rises 02:06:21 0° 160° (SSE) 3,864 5.9 -12.7°
Reaches altitude 10° 02:08:51 10° 162° (SSE) 2,912 5.2 -12.4°
Maximum altitude 02:15:24 76° 248° (WSW) 1,114 3.2 -11.5°
Drops below altitude 10° 02:22:00 10° 334° (NNW) 2,929 5.7 -10.6°
Sets 02:24:32 0° 336° (NNW) 3,889 6.4 -10.3°
